{"data":{"norad_id":68652,"intl_designator":"2026-075S","name":"QIANFAN-125","alt_names":[],"object_type":"PAYLOAD","status":"ACTIVE","operator":null,"country":"PRC","launch_date":"2026-04-07","launch_site_code":"WSC","launch_vehicle":null,"mission":null,"orbit_class":"UNKNOWN","rcs_meters":null,"size_class":null,"mass_kg":null,"dimensions":null,"purposes":[],"wikipedia_slug":null,"has_3d_model":false,"image_url":null,"decayed_at":null,"tle_current":{"epoch":"2026-05-24T11:47:59.139744Z","epoch_age_seconds":122067,"freshness":"FRESH","line1":"1 68652U 26075S   26144.49165671 -.01805809  00000+0 -25514+1 0  9992","line2":"2 68652  88.9873 323.4304 0005167 113.0333 247.1369 13.61082930  6601","mean_motion":13.6108293,"eccentricity":0.0005167,"inclination_deg":88.9873,"raan_deg":323.4304,"arg_perigee_deg":113.0333,"mean_anomaly_deg":247.1369,"bstar":-2.5514,"rev_number":660,"period_min":105.79810886321,"perigee_km":1027.930372662,"apogee_km":1035.5877592566,"semimajor_km":7409.8960659593,"source":"CELESTRAK","updated_at":"2026-05-25T13:38:07.994459Z"}}}